Probability
16 29 39 65 81 65 58 87 100 100 100 100 100 68 61 87 100 100 97 100 42 3 19 0 0 0 0 0 0 19 0 0 0 0 0 0 0 0 0 0 0 0 0
3 29 71 71 90 97 81 94 100 71 77 90 100 100 100 100 100 97 100 94 26 0 0 6 6 0 0 10 0 6 87 0 0 0 0 0 0 0 0 0 0 0 0
3 6 10 35 71 100 100 100 97 77 90 100 94 90 81 94 94 100 97 39 3 0 0 10 26 13 0 71 84 71 10 0 0 0 0 0 0 0 0 0 0 0 0
3 3 3 23 61 94 100 100 100 100 94 94 90 90 100 100 29 94 100 74 19 10 16 3 6 6 32 13 84 68 84 42 0 0 0 0 0 0 0 0 0 0 0
3 3 0 0 23 61 94 97 100 100 100 100 100 100 100 97 94 94 90 32 19 19 26 23 3 0 6 23 42 61 97 45 0 0 0 0 0 0 0 0 0 0 0
3 0 0 0 6 58 90 94 100 100 100 100 100 100 100 100 94 58 26 10 10 55 16 16 6 3 3 19 23 10 61 87 29 0 0 0 0 0 0 0 0 0 0
3 6 16 39 71 84 94 97 100 100 100 100 100 100 100 74 42 10 6 10 0 3 0 0 10 23 13 0 0 0 10 26 90 10 0 0 0 0 0 0 0 0 0
0 29 55 84 100 94 94 97 100 100 100 100 100 100 100 77 26 16 23 10 0 0 0 39 23 58 10 0 0 0 0 0 45 6 0 3 0 0 0 0 0 0 0
0 58 97 97 100 100 97 97 100 100 100 97 97 94 65 65 77 58 39 10 0 0 0 3 0 0 0 0 0 0 0 0 10 13 3 6 0 0 0 0 0 0 0
0 13 71 100 100 100 100 100 97 100 100 100 97 94 61 77 74 23 29 3 0 0 0 0 0 0 0 0 0 0 0 0 0 3 0 0 6 13 0 0 0 0 0
0 0 16 84 97 100 100 100 100 100 100 100 100 97 84 42 23 32 26 10 0 0 6 0 0 0 0 0 0 0 0 0 0 0 0 0 3 48 32 6 0 0 0
0 0 0 10 77 97 100 100 100 100 100 100 100 97 87 74 29 3 32 35 3 0 0 0 0 0 0 0 0 0 0 0 0 0 0 0 6 3 10 23 3 0 0
0 0 0 0 10 61 97 100 100 100 100 100 97 97 97 77 32 0 3 39 6 0 0 0 0 0 0 0 0 0 0 0 0 0 0 0 0 0 0 0 0 0 0
0 0 0 0 0 13 77 100 100 100 100 100 97 97 94 87 35 13 0 0 0 0 0 0 6 0 0 0 0 0 0 0 0 0 0 0 0 0 0 0 0 0 0
0 0 0 0 0 6 71 100 100 100 100 100 97 97 94 90 45 16 10 0 0 0 0 0 0 0 0 0 0 0 0 0 0 0 0 0 0 0 3 0 0 3 3
0 0 0 3 6 6 65 94 100 100 97 97 94 100 97 94 90 65 35 19 16 16 0 0 0 0 0 0 0 0 0 0 0 0 0 0 0 0 0 0 0 0 0
0 0 3 55 55 81 94 97 100 100 97 97 97 97 100 100 100 94 81 68 55 42 23 10 0 0 0 0 0 0 0 0 0 0 0 0 0 0 0 0 0 0 0
0 0 39 68 87 94 94 94 94 100 100 100 100 100 100 100 100 100 97 94 65 61 39 26 16 13 0 0 0 0 3 0 0 0 0 0 0 0 0 0 0 0 0
0 0 3 3 6 10 19 35 52 61 74 74 81 90 97 100 97 97 100 90 94 84 71 26 13 3 0 0 0 0 0 0 0 6 3 0 0 0 0 0 0 0 0
0 0 0 0 0 0 0 0 0 0 0 0 6 26 45 68 77 87 90 77 81 74 58 16 3 0 6 0 0 0 0 0 6 29 6 0 0 0 0 0 0 0 0
0 0 0 0 0 0 0 0 0 0 0 0 0 0 0 0 0 0 3 13 6 29 16 10 6 3 0 0 0 0 0 0 3 6 3 0 0 0 0 0 0 0 0
0 0 0 0 0 0 0 0 0 0 0 0 0 0 0 0 0 0 0 0 0 0 0 0 0 0 0 0 0 0 0 0 0 0 0 0 0 0 0 0 0 0 0
0 0 0 0 0 0 0 0 0 0 0 0 0 0 0 0 0 0 0 0 0 0 0 0 0 0 0 0 0 0 0 0 0 0 0 0 0 0 0 0 0 0 0
0 0 0 0 0 0 0 0 0 0 0 0 0 0 0 0 0 0 0 0 0 0 0 0 0 0 0 0 0 0 0 0 0 0 0 0 0 0 0 0 0 0 0
0 0 0 0 0 0 0 0 0 0 0 0 0 0 0 0 0 0 0 0 0 0 13 35 10 0 0 0 0 0 10 0 0 0 0 0 0 0 0 0 0 0 0
0 0 0 0 0 0 0 0 0 0 0 0 0 0 0 0 0 0 0 0 0 0 0 0 0 0 0 0 0 0 0 0 0 0 0 0 0 0 0 0 0 0 0
Height
5865 5864 5864 5863 5863 5862 5860 5859 5858 5857 5855 5853 5851 5849 5847 5844 5843 5843 5841 5840 5839 5837 5835 5834 5834 5835 5837 5839 5841 5843 5844 5845 5846 5848 5849 5849 5849 5850 5851 5852 5853 5855 5857
5860 5859 5859 5859 5858 5856 5855 5854 5853 5852 5850 5848 5847 5845 5843 5840 5839 5837 5836 5834 5834 5833 5833 5832 5831 5833 5835 5836 5837 5839 5841 5842 5843 5845 5846 5848 5849 5848 5849 5850 5851 5854 5855
5855 5855 5854 5854 5852 5850 5849 5848 5846 5846 5845 5843 5841 5839 5838 5836 5835 5832 5830 5829 5828 5828 5827 5830 5829 5829 5831 5832 5834 5836 5837 5838 5840 5842 5844 5846 5848 5848 5848 5848 5850 5852 5854
5851 5850 5849 5848 5847 5845 5843 5842 5840 5839 5838 5837 5835 5833 5832 5830 5830 5828 5825 5823 5822 5820 5822 5825 5826 5825 5825 5827 5830 5832 5834 5835 5837 5839 5841 5843 5844 5847 5847 5848 5848 5849 5851
5845 5844 5843 5842 5841 5839 5838 5836 5835 5833 5832 5830 5828 5826 5824 5822 5821 5819 5817 5816 5814 5814 5815 5818 5819 5819 5820 5822 5825 5827 5829 5831 5832 5834 5836 5838 5840 5843 5846 5846 5847 5848 5849
5838 5838 5837 5836 5834 5833 5831 5830 5829 5828 5826 5824 5821 5818 5817 5814 5812 5810 5809 5808 5807 5809 5810 5812 5811 5813 5814 5816 5818 5820 5822 5825 5827 5829 5831 5834 5836 5839 5841 5843 5845 5846 5847
5832 5832 5831 5830 5828 5827 5826 5825 5823 5822 5820 5817 5814 5812 5809 5807 5804 5803 5803 5801 5801 5802 5804 5805 5805 5806 5807 5808 5808 5811 5815 5818 5821 5824 5826 5829 5832 5834 5837 5839 5841 5843 5844
5827 5826 5825 5824 5823 5821 5819 5817 5816 5815 5812 5809 5807 5804 5802 5800 5799 5797 5797 5796 5796 5795 5796 5797 5798 5799 5798 5798 5799 5801 5805 5809 5814 5818 5821 5824 5827 5830 5832 5835 5838 5840 5841
5820 5819 5819 5818 5816 5814 5812 5811 5809 5807 5805 5802 5800 5797 5796 5795 5794 5793 5792 5792 5792 5791 5792 5792 5792 5792 5792 5791 5791 5793 5796 5801 5806 5811 5814 5818 5822 5825 5827 5830 5832 5836 5837
5813 5813 5813 5812 5810 5807 5805 5805 5804 5801 5798 5795 5793 5791 5790 5789 5789 5789 5788 5788 5787 5787 5788 5788 5786 5787 5786 5785 5784 5784 5788 5794 5798 5803 5807 5811 5817 5820 5822 5824 5827 5830 5832
5805 5805 5805 5805 5803 5801 5800 5799 5797 5795 5792 5790 5787 5786 5785 5784 5784 5784 5784 5784 5783 5783 5783 5783 5782 5782 5781 5780 5779 5777 5780 5784 5790 5795 5799 5805 5810 5815 5817 5819 5821 5824 5827
5798 5798 5798 5798 5797 5796 5795 5792 5791 5789 5787 5785 5782 5781 5779 5779 5779 5779 5780 5779 5779 5779 5779 5779 5778 5777 5777 5776 5775 5773 5774 5779 5784 5789 5793 5798 5802 5806 5810 5813 5815 5817 5820
5793 5792 5793 5793 5791 5790 5788 5787 5785 5783 5781 5779 5777 5776 5775 5774 5774 5774 5773 5773 5774 5774 5774 5774 5773 5772 5772 5772 5772 5772 5772 5774 5779 5784 5788 5792 5794 5798 5801 5804 5807 5810 5813
5789 5788 5786 5785 5784 5784 5782 5781 5779 5776 5775 5773 5771 5771 5770 5769 5769 5768 5767 5767 5767 5768 5768 5768 5768 5768 5767 5767 5767 5768 5770 5772 5775 5778 5781 5786 5788 5790 5793 5796 5799 5802 5805
5781 5780 5780 5780 5779 5777 5775 5773 5771 5769 5768 5767 5765 5766 5765 5763 5762 5762 5761 5760 5760 5761 5762 5762 5762 5762 5762 5762 5763 5764 5765 5767 5770 5772 5775 5777 5780 5782 5785 5788 5791 5794 5797
5772 5773 5774 5773 5773 5771 5768 5766 5765 5763 5763 5763 5762 5761 5759 5757 5756 5756 5755 5754 5754 5754 5754 5754 5755 5755 5756 5757 5757 5758 5760 5761 5762 5765 5767 5769 5772 5775 5777 5779 5782 5787 5789
5765 5767 5767 5766 5766 5764 5763 5762 5761 5757 5754 5754 5756 5755 5753 5751 5750 5750 5749 5748 5747 5746 5746 5746 5747 5748 5749 5750 5751 5752 5753 5754 5756 5759 5761 5763 5766 5768 5770 5772 5774 5777 5779
5760 5760 5760 5760 5760 5759 5759 5758 5756 5751 5750 5747 5749 5748 5746 5744 5742 5741 5740 5740 5739 5739 5738 5738 5738 5739 5740 5741 5743 5744 5745 5746 5748 5751 5754 5757 5759 5761 5762 5764 5767 5769 5771
5754 5755 5755 5756 5757 5756 5755 5753 5751 5749 5746 5744 5742 5740 5738 5736 5735 5733 5731 5730 5730 5730 5729 5728 5728 5729 5730 5732 5734 5735 5736 5738 5740 5743 5746 5748 5750 5754 5756 5759 5760 5762 5763
5753 5754 5754 5754 5753 5752 5750 5749 5747 5745 5742 5740 5737 5734 5731 5729 5727 5726 5724 5723 5722 5721 5720 5720 5719 5720 5721 5724 5724 5725 5727 5730 5733 5736 5739 5742 5745 5747 5748 5750 5751 5752 5753
5752 5753 5752 5751 5749 5747 5745 5744 5742 5740 5737 5734 5731 5727 5724 5721 5720 5719 5718 5716 5714 5712 5711 5710 5710 5711 5713 5715 5716 5717 5720 5723 5726 5729 5733 5735 5738 5740 5742 5742 5743 5744 5745
5752 5751 5749 5747 5746 5744 5741 5739 5737 5735 5732 5728 5724 5721 5718 5716 5714 5712 5711 5709 5706 5704 5702 5701 5700 5701 5703 5706 5709 5711 5714 5717 5719 5723 5727 5729 5731 5733 5736 5737 5737 5738 5738
5750 5748 5746 5744 5742 5740 5738 5735 5733 5730 5726 5723 5719 5717 5715 5712 5710 5708 5706 5702 5698 5695 5692 5690 5690 5691 5694 5696 5700 5703 5707 5711 5714 5718 5721 5723 5725 5727 5729 5730 5731 5731 5730
5747 5745 5743 5742 5740 5738 5735 5732 5729 5726 5723 5719 5716 5713 5711 5709 5707 5705 5701 5697 5692 5685 5679 5675 5675 5678 5684 5688 5693 5696 5700 5704 5708 5711 5714 5717 5720 5722 5723 5724 5724 5724 5724
5744 5742 5742 5740 5738 5736 5733 5730 5726 5723 5720 5716 5713 5709 5707 5705 5703 5701 5697 5692 5686 5679 5670 5665 5666 5669 5676 5682 5687 5690 5694 5698 5702 5704 5707 5711 5714 5716 5717 5717 5717 5718 5718
5742 5741 5740 5738 5735 5733 5731 5728 5725 5721 5717 5713 5710 5707 5705 5703 5700 5698 5694 5689 5683 5677 5671 5667 5667 5667 5672 5677 5682 5686 5689 5693 5696 5699 5703 5706 5709 5711 5712 5712 5712 5713 5713
Wind_Speed
22 21 20 22 21 21 22 24 24 25 26 24 23 23 23 18 24 21 22 24 23 21 18 13 15 17 18 18 17 15 16 16 15 14 12 10 13 14 13 13 16 20 22
24 22 22 22 22 23 25 26 26 26 26 26 26 25 24 23 25 24 22 23 23 23 24 15 14 16 17 16 17 18 18 18 17 16 14 11 10 11 11 12 15 19 21
25 24 23 21 24 26 28 29 29 29 29 28 29 28 27 28 29 31 30 28 26 25 23 25 18 14 17 19 19 20 20 19 18 17 16 13 11 11 10 10 12 15 18
25 25 25 24 26 27 28 29 30 30 31 31 31 30 30 31 32 33 33 31 29 28 26 28 22 18 19 22 23 23 23 22 21 21 20 16 13 13 11 10 10 12 14
26 27 27 26 27 28 29 31 32 32 32 32 33 33 33 33 33 31 31 31 28 27 25 22 22 22 26 25 25 25 25 23 24 24 22 20 17 16 14 13 13 12 13
27 27 26 26 27 29 31 32 32 31 31 33 34 34 35 34 32 28 26 25 23 24 26 25 25 24 30 31 29 26 26 26 25 27 25 24 22 19 17 17 16 15 14
25 24 24 26 27 30 31 31 31 31 31 31 31 31 32 32 29 25 22 20 19 21 26 30 30 28 31 33 31 31 33 31 29 28 27 26 26 24 22 22 20 19 18
21 22 24 26 29 31 32 32 31 31 30 30 28 27 26 26 24 20 17 16 15 14 19 25 30 31 29 26 29 33 37 37 35 33 31 29 29 28 25 23 22 21 19
20 23 25 27 29 30 29 30 29 30 29 27 27 25 23 21 20 17 15 14 12 12 13 16 21 25 27 27 34 31 36 39 37 34 34 31 30 29 26 24 23 22 20
24 27 29 29 29 28 28 26 24 27 27 26 25 25 22 21 19 16 14 14 13 13 14 16 18 20 21 19 28 35 36 41 41 39 36 35 33 31 26 26 24 23 23
26 27 27 26 26 26 27 24 25 27 27 24 23 22 21 19 18 16 13 12 13 14 15 16 16 17 20 19 20 30 37 41 44 42 36 34 35 34 31 27 29 28 26
27 28 25 23 24 25 26 26 28 28 27 23 21 20 19 19 19 18 15 13 13 15 17 18 18 17 18 17 15 12 22 39 41 36 34 31 35 37 36 35 33 33 31
27 27 24 24 26 27 26 27 27 28 28 23 20 19 18 19 21 21 20 18 17 17 18 19 21 21 21 20 18 16 14 22 32 35 41 35 35 36 33 33 35 35 33
26 25 22 23 26 27 29 30 29 29 27 23 21 19 20 21 22 24 24 23 22 21 21 22 23 24 24 22 21 20 18 21 28 27 33 37 34 33 33 35 36 35 34
27 25 23 23 25 29 30 29 29 27 23 22 21 20 21 20 21 22 23 24 23 23 23 24 25 25 26 23 20 20 22 25 27 26 27 28 28 27 29 32 35 35 35
30 29 29 30 27 23 23 24 24 20 21 21 23 24 21 19 18 18 19 21 23 23 24 24 24 25 26 26 24 21 25 28 29 27 26 28 31 30 29 31 36 37 35
34 34 31 28 23 19 18 18 17 22 23 20 23 23 21 22 22 21 22 22 23 24 25 25 24 25 26 27 28 26 27 30 32 29 26 26 30 31 32 34 35 34 33
27 26 24 21 19 18 18 18 18 22 20 16 21 22 23 25 27 27 25 24 24 25 26 25 25 25 27 30 31 30 29 28 29 31 32 32 31 29 29 29 33 34 32
14 11 11 11 13 17 19 19 17 17 18 19 22 25 27 28 27 26 25 25 25 25 24 24 24 25 28 29 30 30 30 28 26 27 28 30 32 32 29 27 28 34 37
4 4 7 10 14 17 17 16 17 18 19 22 25 26 26 26 24 23 23 24 24 25 25 24 26 27 27 26 28 29 29 29 26 25 28 28 27 28 30 30 29 29 33
6 7 10 12 15 15 15 16 17 18 20 22 23 24 24 23 21 21 21 22 22 24 25 26 27 28 28 27 29 30 31 29 27 25 25 26 24 22 24 28 30 31 31
10 11 12 12 12 12 14 14 16 18 19 21 21 21 21 20 19 19 20 21 23 25 26 27 28 29 29 30 28 30 31 30 28 25 24 23 21 22 23 24 25 28 32
12 14 12 10 11 11 11 14 16 17 18 19 19 17 16 16 16 16 18 21 24 27 28 30 31 30 29 28 26 27 31 33 30 27 23 21 19 19 21 22 23 26 28
12 11 10 9 9 10 13 14 16 17 16 16 15 13 12 13 14 15 18 21 24 27 29 29 30 31 29 27 25 27 31 32 30 28 26 25 25 22 22 23 22 21 21
11 10 9 8 9 11 13 14 15 15 15 14 13 12 12 12 13 14 17 21 23 24 19 13 13 19 25 26 23 23 25 26 25 24 23 23 23 23 22 22 21 21 21
13 12 10 9 8 10 11 12 13 14 14 12 12 11 11 11 11 11 14 17 18 18 11 5 5 6 16 21 22 22 22 22 22 21 21 20 21 22 23 24 24 23 22
Wind_Direction
279 285 294 296 291 287 286 290 289 285 281 282 286 286 294 296 286 279 276 280 278 265 259 237 245 249 241 241 241 234 227 224 225 226 232 223 216 221 225 222 217 213 210
276 285 291 291 289 287 286 285 284 284 282 284 288 289 287 284 282 280 277 278 275 262 248 224 230 248 246 238 234 229 227 225 222 225 227 224 214 213 216 219 218 215 214
278 287 289 287 284 284 286 287 288 288 289 288 289 287 281 277 279 279 278 277 270 259 251 245 236 246 253 249 238 231 225 224 222 220 210 216 228 224 220 218 218 217 219
278 284 284 283 281 282 283 285 288 290 289 287 286 285 283 280 280 280 279 275 263 256 255 246 235 242 250 254 244 236 230 227 228 220 216 217 222 229 225 221 216 214 217
278 282 281 279 279 281 285 289 291 290 287 284 284 283 281 281 283 283 280 273 260 254 257 253 247 255 252 249 244 235 234 231 228 225 223 227 230 228 225 228 229 226 222
273 275 275 276 282 287 291 291 290 287 285 284 284 282 281 280 282 282 276 271 264 255 254 253 252 252 255 255 245 236 235 234 232 228 225 229 232 230 230 229 235 239 237
268 270 275 282 288 291 292 292 289 289 287 286 286 283 280 278 276 275 270 265 260 255 252 248 250 248 253 254 240 238 237 234 230 227 224 225 232 233 235 237 245 249 246
265 273 278 285 291 293 294 293 292 292 293 290 290 292 285 276 271 267 262 256 251 250 253 251 250 250 249 245 244 248 235 229 228 230 227 228 232 231 236 240 250 256 253
271 274 280 286 288 291 292 293 292 289 293 296 289 295 286 275 269 261 254 246 246 252 258 258 253 250 245 246 238 243 236 225 227 229 228 229 232 232 235 241 244 247 247
273 279 283 284 285 288 290 291 292 292 296 302 296 291 286 276 269 259 251 247 250 253 256 261 258 253 262 262 247 242 243 229 220 225 227 231 232 227 234 242 245 244 242
274 276 279 282 284 285 288 291 294 301 301 300 300 293 284 277 268 262 255 249 247 244 247 255 261 261 264 264 264 246 241 227 222 221 222 229 230 230 237 244 246 247 246
280 281 281 283 282 287 296 294 291 298 301 300 299 296 285 277 269 264 261 262 263 258 254 255 261 266 266 261 259 242 239 224 222 218 219 225 234 235 238 245 247 248 250
278 278 276 278 284 293 298 300 292 289 292 287 286 289 283 275 269 266 268 272 273 268 262 259 259 260 261 260 250 243 253 235 219 217 219 221 235 237 241 241 245 246 249
275 269 272 288 286 286 288 290 290 287 281 270 272 283 283 278 273 272 273 276 277 274 268 263 260 259 259 258 255 245 237 220 227 232 234 233 240 238 242 245 243 243 249
267 264 268 281 287 283 283 284 286 280 267 260 269 285 290 285 282 280 277 276 274 272 269 267 263 258 254 253 253 239 232 227 230 229 232 241 240 242 246 248 245 246 251
267 265 273 274 283 289 285 285 282 266 259 260 270 284 290 286 287 286 281 279 279 277 275 270 265 257 250 251 252 243 235 233 233 237 243 242 240 246 249 251 249 247 250
271 272 273 272 277 285 283 287 281 264 253 262 275 281 286 289 290 286 280 280 280 278 274 271 263 256 249 246 246 247 243 239 238 241 245 246 249 251 250 251 250 248 244
263 268 270 272 279 281 282 285 285 286 289 288 283 287 290 293 294 293 289 284 280 278 275 270 263 256 252 249 247 248 248 244 242 243 243 245 249 254 249 249 248 246 246
261 257 257 262 274 283 288 291 296 299 299 294 292 294 295 296 295 292 290 289 285 280 276 274 268 261 256 254 251 246 243 239 236 236 239 241 244 246 244 248 251 247 246
209 227 256 272 281 286 289 294 300 299 295 292 293 295 295 293 291 289 288 288 286 284 280 274 268 264 260 254 252 247 241 235 234 237 238 238 239 241 243 247 254 251 248
254 264 275 284 289 290 290 293 296 297 297 298 298 298 295 292 290 290 291 291 291 288 284 277 270 261 256 251 247 243 239 237 237 238 239 243 244 243 248 254 258 260 260
273 278 282 289 293 295 295 296 300 304 306 306 304 301 299 297 296 297 297 297 296 293 288 279 270 264 258 253 244 239 235 236 240 240 239 241 248 250 253 256 258 261 263
284 287 292 302 308 310 311 310 311 313 315 315 311 305 303 300 298 300 303 305 301 294 285 275 266 260 254 248 238 237 233 232 238 240 240 243 248 254 256 256 260 263 266
300 303 312 314 312 318 325 323 323 323 323 321 315 309 312 305 299 302 309 313 312 307 296 276 254 242 237 235 234 235 235 237 240 240 243 247 249 255 259 260 260 259 271
320 316 310 312 318 324 329 331 332 331 325 323 324 325 326 319 310 313 322 326 331 336 326 280 248 232 228 228 228 227 232 238 238 243 246 245 247 252 259 261 260 259 267
329 322 314 319 324 326 330 336 340 340 337 332 332 334 337 339 343 345 349 347 345 355 14 340 343 190 215 220 222 225 226 231 233 236 236 237 245 252 256 260 264 264 266